Location: Buch am Rannenberg
(48.6989°N, 10.6399°E)
Time: 01:30:57
(UTC+00:00)

NOSS 2-1 (D) - Pass Details

Date: 07 June 2020
Orbit: 449 x 1754 km, 63.3° (Epoch: 25 June)

Event Time Altitude Azimuth Distance (km) Brightness Sun altitude
Exits shadow 01:16:56 26° 201° (SSW) 933 3.9 -13.6°
Maximum altitude 01:18:41 63° 127° (SE) 515 3.1 -13.5°
Drops below altitude 10° 01:22:16 10° 47° (NE) 1,698 7.1 -13.2°
Sets 01:24:36 0° 44° (NE) 2,694 8.6 -13.0°
